Sterling, IL

1:13 AM CDT on April 24, 2017 (GMT -0500)
Whiteside County-Bittorf

Weather History for KSQI - April, 2014

Change the Weather History Date:

Tuesday, April 8, 2014

  Actual Average Record
Temperature  
Mean Temperature 52 °F -  
Max Temperature 64 °F 55 °F 78 °F (2001)
Min Temperature 39 °F 35 °F 24 °F (1997)
Degree Days  
Heating Degree Days 14    
Growing Degree Days 2 (Base 50)    
Moisture  
Dew Point 36 °F    
Average Humidity 58    
Maximum Humidity 87    
Minimum Humidity 31    
Precipitation  
Precipitation 0.00 in - - ()
Sea Level Pressure  
Sea Level Pressure 29.77 in    
Wind  
Wind Speed 11 mph (NNW)    
Max Wind Speed 18 mph    
Max Gust Speed 24 mph    
Visibility 10 miles    
Events      
Averages and records for this station are not official NWS values.
T = Trace of Precipitation, MM = Missing Value Source: NWS Daily Summary

Daily Weather History Graph

Daily Weather History Graph

Search for Another Location

Airport or City:

Trip Planner

Search our weather history database for the weather conditions in past years. The results will help you decide how hot, cold, wet, or windy it might be!

Date:

Astronomy

Apr. 08, 2014 Rise Set
Actual Time 6:29 AM CDT 7:31 PM CDT
Civil Twilight 6:01 AM CDT 8:00 PM CDT
Nautical Twilight 5:27 AM CDT 8:34 PM CDT
Astronomical Twilight 4:52 AM CDT 9:09 PM CDT
Moon 1:20 PM CDT (4/8) 2:47 AM CDT (4/8)
Length of Visible Light 13h 58m
Length of Day
13h 01m
Waxing Gibbous, 63% of the Moon is Illuminated
Apr 8
Waxing Gibbous
Apr 15
Full
Apr 22
Last Quarter
Apr 29
New
May 6
First Quarter

Hourly Weather History & Observations

Time (CDT) Temp. Windchill Dew Point Humidity Pressure Visibility Wind Dir Wind Speed Gust Speed Precip Events Conditions
12:15 AM 51.8 °F - 41.0 °F 67% 29.69 in 10.0 mi NNW 10.4 mph - N/A   Overcast
12:35 AM 50.0 °F - 39.2 °F 66% 29.69 in 10.0 mi NNW 12.7 mph 16.1 mph N/A   Mostly Cloudy
12:55 AM 48.2 °F - 39.2 °F 71% 29.69 in 10.0 mi NNW 11.5 mph - N/A   Partly Cloudy
1:15 AM 46.4 °F 40.7 °F 37.4 °F 71% 29.69 in 10.0 mi NNW 12.7 mph - N/A   Clear
1:35 AM 46.4 °F 41.9 °F 37.4 °F 71% 29.69 in 10.0 mi North 9.2 mph - N/A   Clear
1:55 AM 44.6 °F 40.2 °F 37.4 °F 76% 29.69 in 10.0 mi NNW 8.1 mph - N/A   Clear
2:15 AM 44.6 °F 41.4 °F 35.6 °F 71% 29.69 in 10.0 mi NNW 5.8 mph - N/A   Clear
2:35 AM 42.8 °F 39.3 °F 35.6 °F 76% 29.69 in 10.0 mi NW 5.8 mph - N/A   Clear
2:55 AM 41.0 °F 35.8 °F 35.6 °F 81% 29.69 in 10.0 mi WNW 8.1 mph - N/A   Clear
3:15 AM 42.8 °F 38.6 °F 35.6 °F 76% 29.69 in 10.0 mi WNW 6.9 mph - N/A   Clear
3:35 AM 39.2 °F 33.0 °F 33.8 °F 81% 29.69 in 10.0 mi WNW 9.2 mph - N/A   Clear
3:55 AM 39.2 °F 33.6 °F 35.6 °F 87% 29.70 in 10.0 mi WNW 8.1 mph - N/A   Scattered Clouds
4:15 AM 42.8 °F 38.0 °F 37.4 °F 81% 29.70 in 10.0 mi NNW 8.1 mph - N/A   Scattered Clouds
4:35 AM 42.8 °F 37.0 °F 37.4 °F 81% 29.70 in 10.0 mi NNW 10.4 mph - N/A   Clear
4:55 AM 42.8 °F 38.0 °F 35.6 °F 76% 29.70 in 10.0 mi NW 8.1 mph - N/A   Clear
5:15 AM 42.8 °F 38.0 °F 37.4 °F 81% 29.71 in 10.0 mi NW 8.1 mph - N/A   Clear
5:35 AM 42.8 °F 38.6 °F 35.6 °F 76% 29.71 in 10.0 mi NW 6.9 mph - N/A   Clear
5:55 AM 41.0 °F 37.1 °F 35.6 °F 81% 29.72 in 10.0 mi NW 5.8 mph - N/A   Clear
6:15 AM 41.0 °F 34.3 °F 35.6 °F 81% 29.73 in 10.0 mi NW 11.5 mph 16.1 mph N/A   Clear
6:35 AM 41.0 °F 34.7 °F 35.6 °F 81% 29.73 in 10.0 mi NW 10.4 mph - N/A   Clear
7:15 AM 42.8 °F 36.2 °F 35.6 °F 76% 29.75 in 10.0 mi NNW 12.7 mph - N/A   Clear
7:35 AM 44.6 °F 39.2 °F 35.6 °F 71% 29.76 in 10.0 mi NNW 10.4 mph 16.1 mph N/A   Clear
7:55 AM 44.6 °F 38.8 °F 35.6 °F 71% 29.76 in 10.0 mi North 11.5 mph - N/A   Clear
8:15 AM 46.4 °F 40.7 °F 37.4 °F 71% 29.77 in 10.0 mi North 12.7 mph - N/A   Clear
8:35 AM 46.4 °F 40.7 °F 37.4 °F 71% 29.77 in 10.0 mi NNW 12.7 mph - N/A   Clear
8:55 AM 46.4 °F 39.8 °F 37.4 °F 71% 29.78 in 10.0 mi North 16.1 mph 19.6 mph N/A   Clear
9:15 AM 48.2 °F - 37.4 °F 66% 29.78 in 10.0 mi North 13.8 mph 18.4 mph N/A   Clear
9:35 AM 50.0 °F - 37.4 °F 62% 29.79 in 10.0 mi North 13.8 mph - N/A   Clear
9:55 AM 51.8 °F - 37.4 °F 58% 29.79 in 10.0 mi North 12.7 mph - N/A   Clear
10:15 AM 53.6 °F - 37.4 °F 54% 29.80 in 10.0 mi North 13.8 mph 19.6 mph N/A   Clear
10:35 AM 55.4 °F - 39.2 °F 54% 29.81 in 10.0 mi North 12.7 mph - N/A   Clear
10:55 AM 55.4 °F - 39.2 °F 54% 29.81 in 10.0 mi NE 11.5 mph - N/A   Clear
11:15 AM 57.2 °F - 39.2 °F 51% 29.81 in 10.0 mi North 13.8 mph 18.4 mph N/A   Clear
11:35 AM 59.0 °F - 39.2 °F 48% 29.81 in 10.0 mi North 16.1 mph 20.7 mph N/A   Scattered Clouds
11:55 AM 59.0 °F - 39.2 °F 48% 29.81 in 10.0 mi NNW 11.5 mph 16.1 mph N/A   Partly Cloudy
12:15 PM 60.8 °F - 39.2 °F 45% 29.81 in 10.0 mi North 11.5 mph 24.2 mph N/A   Scattered Clouds
12:35 PM 59.0 °F - 37.4 °F 45% 29.81 in 10.0 mi NNW 16.1 mph 24.2 mph N/A   Mostly Cloudy
12:55 PM 60.8 °F - 35.6 °F 39% 29.81 in 10.0 mi North 15.0 mph 23.0 mph N/A   Mostly Cloudy
1:15 PM 57.2 °F - 35.6 °F 44% 29.81 in 10.0 mi North 13.8 mph 21.9 mph N/A   Mostly Cloudy
1:35 PM 57.2 °F - 33.8 °F 41% 29.81 in 10.0 mi NNW 12.7 mph - N/A   Mostly Cloudy
1:55 PM 60.8 °F - 33.8 °F 36% 29.81 in 10.0 mi North 16.1 mph 19.6 mph N/A   Partly Cloudy
2:15 PM 60.8 °F - 35.6 °F 39% 29.81 in 10.0 mi North 8.1 mph 20.7 mph N/A   Scattered Clouds
2:35 PM 60.8 °F - 33.8 °F 36% 29.81 in 10.0 mi NW 13.8 mph - N/A   Scattered Clouds
2:55 PM 62.6 °F - 35.6 °F 37% 29.81 in 10.0 mi North 13.8 mph 17.3 mph N/A   Mostly Cloudy
3:15 PM 60.8 °F - 33.8 °F 36% 29.81 in 10.0 mi NNW 16.1 mph 20.7 mph N/A   Mostly Cloudy
3:35 PM 62.6 °F - 33.8 °F 34% 29.82 in 10.0 mi North 10.4 mph 24.2 mph N/A   Mostly Cloudy
3:55 PM 64.4 °F - 33.8 °F 32% 29.82 in 10.0 mi North 18.4 mph 24.2 mph N/A   Overcast
4:15 PM 62.6 °F - 33.8 °F 34% 29.83 in 10.0 mi NNW 13.8 mph 17.3 mph N/A   Scattered Clouds
4:35 PM 60.8 °F - 32.0 °F 34% 29.83 in 10.0 mi North 13.8 mph 19.6 mph N/A   Mostly Cloudy
4:55 PM 60.8 °F - 30.2 °F 31% 29.83 in 10.0 mi NNW 16.1 mph - N/A   Mostly Cloudy
5:15 PM 62.6 °F - 32.0 °F 32% 29.84 in 10.0 mi NW 11.5 mph 23.0 mph N/A   Mostly Cloudy
5:35 PM 57.2 °F - 30.2 °F 36% 29.85 in 10.0 mi NW 11.5 mph - N/A   Mostly Cloudy
5:55 PM 60.8 °F - 32.0 °F 34% 29.85 in 10.0 mi NNW 18.4 mph 24.2 mph N/A   Mostly Cloudy
6:15 PM 57.2 °F - 30.2 °F 36% 29.85 in 10.0 mi NW 9.2 mph - N/A   Partly Cloudy